CW0608 Weather Reports


time (UTC)temp
F
wind
direction
speed
knots
gust
knots
rain 1hr
in
rain 24hr
in
rain mn
in
humidity
%
barometer
mb
20260507065805 54 281 0.9 2.6 0.00 0.16 0.08 94 1011.5
20260507065306 54 286 0.9 2.6 0.00 0.16 0.08 94 1011.4
20260507064305 54 292 0.0 1.7 0.00 0.16 0.08 94 1011.4
20260507063305 55 294 0.0 4.3 0.00 0.16 0.08 94 1011.6
20260507062306 55 290 0.0 2.6 0.00 0.16 0.08 94 1011.4
20260507061806 55 309 0.9 2.6 0.00 0.16 0.08 94 1011.5
20260507061305 55 268 0.9 2.6 0.01 0.16 0.08 94 1011.4
20260507060806 55 16 0.9 2.6 0.01 0.16 0.08 94 1011.2
20260507053304 55 242 0.9 2.6 0.08 0.16 0.08 93 1011.7
20260507051806 56 295 0.9 5.2 0.08 0.16 0.08 92 1011.7
20260507051305 56 265 1.7 5.2 0.07 0.15 0.07 91 1011.5
20260507050305 56 4 2.6 8.7 0.06 0.14 0.06 90 1011.7
20260507045806 57 281 2.6 8.7 0.05 0.13 0.05 89 1011.8
20260507044805 58 259 5.2 10.4 0.01 0.09 0.01 87 1011.8
20260507044305 58 275 0.9 6.1 0.00 0.08 0.00 87 1011.1
20260507042805 59 161 0.9 12.2 0.00 0.08 0.00 86 1011.2
20260507041305 60 281 3.5 12.2 0.00 0.08 0.00 85 1011.1
20260507040305 61 310 1.7 7.0 0.00 0.08 0.00 85 1010.7
20260507035804 61 284 0.9 2.6 0.00 0.08 0.08 85 1010.7
20260507035306 61 284 0.9 2.6 0.00 0.08 0.08 85 1010.7
20260507034804 61 284 1.7 7.0 0.00 0.08 0.08 84 1010.7
20260507034305 62 282 2.6 7.0 0.00 0.08 0.08 84 1010.9
20260507032806 62 302 1.7 7.8 0.00 0.08 0.08 86 1010.8
20260507025306 64 331 5.2 12.2 0.00 0.08 0.08 86 1010.4
20260507024805 64 272 0.9 6.1 0.00 0.08 0.08 87 1010.3
20260507023305 64 314 1.7 7.0 0.00 0.08 0.08 87 1010.0
20260507022306 65 349 2.6 7.0 0.00 0.08 0.08 88 1010.2
20260507021305 65 296 1.7 8.7 0.00 0.08 0.08 88 1010.2
20260507020805 65 269 1.7 8.7 0.00 0.08 0.08 88 1010.0
20260507020305 65 308 4.3 8.7 0.00 0.08 0.08 87 1010.0
20260507015804 65 314 1.7 8.7 0.00 0.08 0.08 87 1010.1
20260507013305 66 290 1.7 5.2 0.00 0.08 0.08 87 1010.4
20260507012306 66 256 2.6 7.0 0.00 0.08 0.08 87 1010.5
20260507011805 66 280 2.6 7.0 0.00 0.08 0.08 86 1010.6
20260507002805 67 154 1.7 5.2 0.00 0.08 0.08 84 1009.8
20260507001305 68 152 3.5 5.2 0.00 0.08 0.08 82 1009.6
20260507000306 68 158 1.7 5.2 0.00 0.08 0.08 82 1009.6
20260506235804 68 179 1.7 5.2 0.00 0.08 0.08 82 1009.6
20260506235306 68 158 2.6 5.2 0.00 0.08 0.08 82 1009.1
20260506233805 69 190 1.7 2.6 0.00 0.08 0.08 82 1009.1
20260506232805 69 175 2.6 4.3 0.00 0.08 0.08 82 1009.0
20260506231305 69 159 1.7 2.6 0.00 0.08 0.08 81 1009.0
20260506230805 69 233 0.9 2.6 0.00 0.08 0.08 81 1009.0
20260506230306 69 235 0.0 2.6 0.00 0.08 0.08 80 1009.0
20260506225306 69 167 0.9 5.2 0.00 0.08 0.08 81 1009.0
20260506224305 69 170 2.6 5.2 0.00 0.08 0.08 80 1009.0
20260506223304 69 201 2.6 4.3 0.00 0.08 0.08 80 1009.2
20260506222306 70 220 1.7 6.1 0.00 0.08 0.08 79 1009.0
20260506221304 70 162 2.6 7.0 0.00 0.08 0.08 79 1009.0
20260506214806 70 169 1.7 5.2 0.00 0.08 0.08 79 1009.0
20260506214305 70 169 1.7 6.1 0.00 0.08 0.08 79 1008.8
20260506213804 70 174 2.6 8.7 0.00 0.08 0.08 79 1008.9
20260506212805 70 208 1.7 7.8 0.00 0.08 0.08 79 1008.8
20260506212306 70 169 1.7 7.8 0.00 0.08 0.08 78 1008.7
20260506210805 69 216 0.9 4.3 0.00 0.08 0.08 79 1008.6
20260506205804 69 154 1.7 5.2 0.00 0.08 0.08 79 1008.4
20260506205306 69 172 2.6 7.0 0.00 0.08 0.08 79 1008.6
20260506204804 69 154 1.7 7.0 0.00 0.08 0.08 79 1008.4
20260506204305 69 215 1.7 7.0 0.00 0.08 0.08 79 1008.7
20260506203805 70 158 0.9 6.1 0.00 0.08 0.08 78 1008.5
20260506202804 70 178 2.6 7.8 0.00 0.08 0.08 77 1008.5
20260506201806 70 201 1.7 8.7 0.00 0.08 0.08 77 1008.4
20260506195805 70 201 2.6 10.4 0.00 0.08 0.08 77 1008.6
20260506194305 70 203 1.7 13.0 0.00 0.08 0.08 79 1008.5
20260506193805 69 197 6.1 13.0 0.01 0.08 0.08 77 1008.6
20260506193306 70 197 1.7 10.4 0.01 0.08 0.08 78 1008.6
20260506192806 70 196 3.5 12.2 0.01 0.08 0.08 78 1008.7
20260506191805 70 121 1.7 11.3 0.01 0.08 0.08 78 1008.8
20260506190304 68 204 4.3 10.4 0.01 0.08 0.08 81 1009.0
20260506185306 68 169 2.6 10.4 0.01 0.08 0.08 81 1009.1
20260506184804 68 216 2.6 17.4 0.01 0.08 0.08 82 1009.1
20260506184304 67 230 6.1 17.4 0.01 0.08 0.08 81 1009.1
20260506183304 67 185 5.2 11.3 0.00 0.07 0.07 83 1009.2
20260506182804 67 179 4.3 11.3 0.00 0.07 0.07 83 1009.2
20260506174304 64 201 2.6 10.4 0.00 0.07 0.07 88 1009.5
20260506173804 64 166 3.5 11.3 0.00 0.07 0.07 88 1009.5
20260506173305 64 171 6.1 11.3 0.00 0.07 0.07 89 1009.4
20260506172805 64 188 4.3 10.4 0.00 0.07 0.07 90 1009.5
20260506171305 63 191 2.6 11.3 0.00 0.07 0.07 91 1009.5
20260506165306 62 155 3.5 13.9 0.00 0.07 0.07 92 1009.6
20260506164805 62 201 3.5 13.9 0.00 0.07 0.07 92 1009.8
20260506164304 62 186 6.1 13.0 0.00 0.07 0.07 92 1009.6
20260506163304 62 179 3.5 13.0 0.00 0.07 0.07 93 1009.6
20260506162306 62 157 4.3 13.0 0.00 0.07 0.07 93 1009.9
20260506161805 62 196 4.3 13.0 0.00 0.07 0.07 93 1009.8
20260506155306 61 155 5.2 10.4 0.03 0.07 0.07 93 1010.0
20260506154305 61 169 4.3 10.4 0.03 0.07 0.07 94 1009.7
20260506153805 61 154 5.2 10.4 0.04 0.07 0.07 93 1010.1
20260506152804 61 162 5.2 10.4 0.04 0.07 0.07 93 1010.3
20260506150805 61 154 3.5 10.4 0.05 0.07 0.07 93 1010.5
20260506150305 61 165 4.3 10.4 0.04 0.06 0.06 92 1010.6
20260506145805 62 156 4.3 10.4 0.03 0.05 0.05 92 1010.7
20260506145306 61 155 3.5 10.4 0.02 0.04 0.04 92 1010.6
20260506142306 62 159 4.3 10.4 0.02 0.02 0.02 92 1010.5
20260506141305 62 157 3.5 10.4 0.02 0.02 0.02 91 1010.6
20260506133805 63 163 4.3 10.4 0.01 0.01 0.01 86 1010.8
20260506132805 63 155 3.5 10.4 0.01 0.01 0.01 85 1010.8
20260506131305 64 153 4.3 7.0 0.00 0.00 0.00 83 1010.6
20260506130806 64 153 2.6 10.4 0.00 0.00 0.00 83 1010.4
20260506124804 64 174 2.6 12.2 0.00 0.00 0.00 82 1010.5
20260506124305 64 166 2.6 12.2 0.00 0.00 0.00 81 1010.5
20260506123304 64 163 2.6 7.0 0.00 0.00 0.00 81 1010.8
20260506122804 64 164 3.5 8.7 0.00 0.00 0.00 80 1010.9
20260506122306 65 180 3.5 8.7 0.00 0.00 0.00 79 1011.0
20260506121804 65 167 3.5 8.7 0.00 0.00 0.00 79 1011.0
20260506121306 65 154 4.3 10.4 0.00 0.00 0.00 78 1011.0
20260506120804 65 167 5.2 10.4 0.00 0.00 0.00 77 1010.9
20260506120306 65 139 4.3 10.4 0.00 0.00 0.00 77 1010.9
20260506115805 66 183 2.6 7.8 0.00 0.00 0.00 77 1010.9
20260506114805 66 171 5.2 10.4 0.00 0.00 0.00 77 1010.7
20260506113804 66 148 5.2 7.8 0.00 0.00 0.00 77 1010.5
20260506112804 66 152 4.3 10.4 0.00 0.00 0.00 77 1010.4
20260506111804 65 167 4.3 12.2 0.00 0.00 0.00 77 1010.4
20260506111304 65 162 4.3 12.2 0.00 0.00 0.00 77 1010.4
20260506110805 65 193 3.5 12.2 0.00 0.00 0.00 77 1010.4
20260506104805 65 156 6.1 13.0 0.00 0.00 0.00 77 1010.1
20260506104305 65 169 6.1 13.0 0.00 0.00 0.00 77 1010.1
20260506102305 64 155 6.1 10.4 0.00 0.00 0.00 78 1010.0
20260506101305 64 153 4.3 10.4 0.00 0.00 0.00 78 1010.0
20260506100804 64 166 5.2 10.4 0.00 0.00 0.00 77 1010.1
20260506100305 65 148 3.5 10.4 0.00 0.00 0.00 77 1010.2
20260506095804 65 154 4.3 10.4 0.00 0.00 0.00 77 1010.1
20260506093304 65 147 3.5 10.4 0.00 0.00 0.00 76 1010.2
20260506091305 66 158 2.6 10.4 0.00 0.00 0.00 75 1010.1
20260506090805 66 161 4.3 10.4 0.00 0.00 0.00 74 1010.2
20260506084805 66 142 4.3 13.0 0.00 0.00 0.00 74 1010.4
20260506083304 66 162 3.5 7.8 0.00 0.00 0.00 72 1010.3
20260506082805 67 141 4.3 8.7 0.00 0.00 0.00 72 1010.3
20260506080805 67 172 4.3 10.4 0.00 0.00 0.00 70 1010.1
20260506080304 68 159 6.1 10.4 0.00 0.00 0.00 69 1010.2
20260506072306 69 178 4.3 8.7 0.00 0.00 0.00 66 1010.5
20260506070805 69 155 3.5 8.7 0.00 0.00 0.00 65 1010.5